Regional Weather Roundup
Issued by NWS

Home | Current Version | Previous Version | Text Only | Print | Product List | Glossary Off
Versions: 1 2 3 4 5 6 7 8 9 10 11 12 13 14 15 16 17 18 19 20 21 22 23 24 25 26 27 28 29 30 31 32 33 34 35 36 37 38 39 40 41 42 43 44 45 46 47 48 49 50

000
ASUS43 KDMX 290604
RWRIA

WEATHER ROUNDUP FOR IOWA
NATIONAL WEATHER SERVICE DES MOINES IA
  ISSUED BY NWS QUAD CITIES IA IL
1200 AM CST THU JAN 29 2015

NOTE: "FAIR" INDICATES FEW OR NO CLOUDS BELOW 12,000 FEET WITH NO
SIGNIFICANT WEATHER AND/OR OBSTRUCTIONS TO VISIBILITY.

* - THESE STATIONS ARE NOT NWS STATIONS...THUS NOT UNDER NWS
QUALITY CONTROL.  THEY ALSO DO NOT REPORT WEATHER SUCH
AS PRECIPITATION OR FOG.

IAZ001>003-012>014-020>022-031>034-043>046-290700-
   NORTHWEST IOWA

CITY           SKY/WX    TMP DP  RH WIND       PRES   REMARKS
CARROLL *      CLOUDY    36  34  93 N38       29.88R WCI  21
CHEROKEE *     CLOUDY    36  35  98 NW15G23   29.95R FOG     WCI  26
6HR MIN TEMP:  33; 6HR MAX TEMP:  37;

DENNISON *     CLOUDY    37  37 100 N22G31    29.91R FOG     WCI  27
LE MARS *      CLOUDY    36  32  87 N24G35    30.00R WCI  24
ORANGE CITY *  CLOUDY    36  32  87 N20G26    29.97R WCI  25
SHELDON *      CLOUDY    34  34 100 N24G33    29.94R WCI  21
SIOUX CITY     CLOUDY    37  32  82 NW29G40   29.99R WCI  25
6HR MIN TEMP:  35; 6HR MAX TEMP:  45; 6HR PCP: TRACE;

SPENCER        CLOUDY    35  32  88 NW22G32   29.92R WCI  23
6HR MIN TEMP:  32; 6HR MAX TEMP:  36;

STORM LAKE *   CLOUDY    36  34  93 N26G33    29.92R WCI  23
$$

IAZ055>058-069>071-079>083-090>094-290700-
   SOUTHWEST IOWA

CITY           SKY/WX    TMP DP  RH WIND       PRES   REMARKS
ATLANTIC *     CLOUDY    39  36  87 N32G43    29.89R WCI  27
AUDUBON *      MOCLDY    37  34  87 NW26G36   29.89R WCI  26
CLARINDA *     CLOUDY    45  37  76 NW25G36   29.90R WCI  35
COUNCIL BLFS * CLOUDY    41  37  87 N28G39    29.91R WCI  30
CRESTON *      CLOUDY    39  36  87 NW38      29.82R WCI  26
HARLAN *       CLOUDY    39  39 100 N23G40    29.95R WCI  29
LAMONI         PTCLDY    42  35  76 NW29G37   29.78R WCI  31
6HR MIN TEMP:  40; 6HR MAX TEMP:  54;

RED OAK *      CLOUDY    43  37  81 NW23G37   29.90R WCI  33
SHENANDOAH *   CLOUDY    45  37  76 N28G40    29.91R WCI  35
$$

IAZ047>049-059>061-072>074-084-290700-
   CENTRAL IOWA

CITY           SKY/WX    TMP DP  RH WIND       PRES   REMARKS
AMES           CLOUDY    35  32  88 NW23G35   29.79R FOG     WCI  23
6HR MIN TEMP:  31; 6HR MAX TEMP:  41;

ANKENY *       CLOUDY    36  34  93 NW20G28   29.78R WCI  25
BOONE *        CLOUDY    36  34  93 NW22G37   29.79R WCI  24
CHARITON *     MIX PCPN  41  36  81 NW29G37   29.74R WCI  30
DES MOINES     CLOUDY    38  33  82 N28G36    29.78R WCI  26
6HR MIN TEMP:  34; 6HR MAX TEMP:  50;

GRINNELL *     PTCLDY    31  30  96 NW6       29.71R FOG     WCI  25
6HR MIN TEMP:  30; 6HR MAX TEMP:  40;

KNOXVILLE *    CLOUDY    34  32  93 NW13      29.72R WCI  25
MARSHALLTOWN   CLOUDY    33  31  92 NW13      29.74R WCI  24
6HR MIN TEMP:  30; 6HR MAX TEMP:  36;

NEWTON *       CLOUDY    34  32  93 NW9       29.73R WCI  26
PELLA *        PTCLDY    33  32  96 NW8       29.74R WCI  26
6HR MIN TEMP:  31; 6HR MAX TEMP:  44;

PERRY *          N/A     36  33  90 NW24G30   29.84R WCI  24
6HR MIN TEMP:  32; 6HR MAX TEMP:  44;

$$

IAZ004>006-015-016-023>025-035-036-290700-
   NORTH CENTRAL IOWA

CITY           SKY/WX    TMP DP  RH WIND       PRES   REMARKS
ALGONA *       CLOUDY    34  32  93 N17G29    29.86R FOG     WCI  23
CLARION *      CLOUDY    34  34 100 N20G26    29.83R FOG     WCI  22
ESTHERVILLE    CLOUDY    32  31  96 N21G30    29.88R FOG     WCI  20
6HR MIN TEMP:  32; 6HR MAX TEMP:  33;

FORT DODGE *   CLOUDY    34  30  86 N12G24    29.86R WCI  25
6HR MIN TEMP:  30; 6HR MAX TEMP:  36;

MASON CITY     CLOUDY    33  32  96 N18       29.81R FOG     WCI  22
6HR MIN TEMP:  30; 6HR MAX TEMP:  34;

FOREST CITY *  CLOUDY    32  32 100 NW18G29   29.82R FOG     WCI  20
WEBSTER CITY * CLOUDY    34  34 100 NW24G35   29.81R FOG     WCI  21
IOWA FALLS *   CLOUDY    33  32  95 NW16      29.78R FOG     WCI  23
6HR MIN TEMP:  32; 6HR MAX TEMP:  35;

$$

IAZ007>011-017>019-026>030-037>042-050>054-066-290700-
   NORTHEAST IOWA

CITY           SKY/WX    TMP DP  RH WIND       PRES   REMARKS
CEDAR RAPIDS   CLEAR     31  30  96 NE8       29.68S WCI  23
6HR MIN TEMP:  31; 6HR MAX TEMP:  36;

CHARLES CITY * CLOUDY    32  32 100 N9        29.78R FOG     WCI  24
CLINTON *      PTCLDY    34  28  80 SE10      29.72F WCI  26
6HR MIN TEMP:  34; 6HR MAX TEMP:  36;

DECORAH *      CLOUDY    32  28  86 N7        29.76R WCI  26
DUBUQUE        CLEAR     30  27  88 E6        29.71S WCI  24
6HR MIN TEMP:  30; 6HR MAX TEMP:  33;

MONTICELLO *   CLEAR     32  32 100 NE5       29.70F WCI  27
OELWEIN *      CLOUDY    32  32 100 N8        29.75R WCI  25
WATERLOO       CLOUDY    33  31  92 N8        29.75R WCI  26
6HR MIN TEMP:  27; 6HR MAX TEMP:  34;

$$

IAZ064-065-067-068-078-290700-
   EAST CENTRAL IOWA

CITY           SKY/WX    TMP DP  RH WIND       PRES   REMARKS
DAVENPORT      PTCLDY    37  30  75 S10       29.69F WCI  30
6HR MIN TEMP:  35; 6HR MAX TEMP:  37;

IOWA CITY      CLEAR     35  31  85 CALM      29.69S
6HR MIN TEMP:  33; 6HR MAX TEMP:  37;

MT. PLEASANT * MOCLDY    39  33  79 S10       29.66S WCI  32
6HR MIN TEMP:  38; 6HR MAX TEMP:  40;

MUSCATINE *    MOCLDY    39  32  75 SE5       29.67F WCI  36
QUAD CITIES    PTCLDY    39  31  72 S9        29.68F WCI  33
6HR MIN TEMP:  35; 6HR MAX TEMP:  40;

$$

IAZ062-063-075>077-085>089-095>099-290700-
   SOUTHEAST IOWA

CITY           SKY/WX    TMP DP  RH WIND       PRES   REMARKS
BURLINGTON     MOCLDY    42  34  73 S15       29.66F WCI  34
6HR MIN TEMP:  40; 6HR MAX TEMP:  42;

FAIRFIELD *    PTCLDY    37  32  81 W6        29.66R WCI  33
FORT MADISON * MOCLDY    39  34  81 S14       29.67F WCI  31
KEOKUK *       CLOUDY    46  36  66 S10G17    29.66F
OTTUMWA        CLEAR     28  27  96 NW7       29.67R WCI  21
6HR MIN TEMP:  28; 6HR MAX TEMP:  43;

WASHINGTON *   PTCLDY    36  36 100 CALM      29.66S
$$

ABBREVIATIONS USED IN REMARKS
   TC - TEMPERATURES IN CELSIUS
  WCI - WIND CHILL INDEX
   HX - HEAT INDEX
  VSB - VISIBILITY
$$


USA.gov is the U.S. government's official web portal to all federal, state and local government web resources and services.